RH
100 100 100 100 100 100 81 54 71 97 100 100 100 100 100 94 69 66 73 83 91 85 78 88 94 94 100 99 100 100 100 100 100 100 98 88 86 98 96 89 94 95 100 98 100 100 100 100 96 75 84 75 61 61
100 100 100 100 100 87 100 77 60 88 100 100 100 100 100 97 96 65 52 56 55 51 60 75 77 90 100 100 100 95 100 100 100 100 96 100 100 100 95 74 92 80 94 100 100 100 100 100 96 73 62 69 65 67
100 100 100 100 100 88 100 85 41 45 100 100 100 98 92 63 63 67 64 51 34 39 24 47 62 81 93 100 100 99 100 100 100 100 100 100 100 84 82 88 77 77 100 100 97 83 100 100 91 77 66 74 76 71
100 100 100 100 98 92 100 94 66 58 64 74 71 68 91 99 91 88 74 76 69 48 22 19 39 69 99 98 97 100 100 100 98 100 100 91 75 68 63 55 73 100 97 99 100 100 100 96 85 92 86 81 73 76
92 92 100 97 83 100 100 96 86 98 100 100 97 100 100 100 100 100 73 64 68 59 28 17 24 32 80 94 96 100 100 100 100 100 77 96 67 69 72 80 89 100 97 98 98 100 97 85 77 71 60 57 76 85
88 91 100 94 100 100 100 100 100 100 100 100 100 100 100 100 100 84 86 97 100 100 45 20 22 24 32 75 96 94 100 100 98 97 100 83 100 92 83 65 34 41 47 52 62 72 67 63 71 74 81 82 100 100
74 76 84 93 100 100 100 100 100 100 100 100 100 98 100 92 78 91 94 100 100 100 84 25 22 22 29 46 82 97 97 99 100 100 100 85 40 32 19 15 56 37 36 33 36 50 58 54 52 57 52 80 99 100
52 56 64 81 97 100 100 100 100 100 100 100 100 96 92 90 80 86 100 100 100 95 61 26 88 100 69 82 100 100 95 100 100 100 98 71 28 19 12 23 11 18 26 31 39 47 65 78 76 88 98 96 98 100
100 100 94 70 66 66 60 56 61 99 100 100 90 100 92 94 86 97 96 99 100 100 52 98 100 97 100 100 100 100 100 100 97 99 75 21 22 20 18 18 13 18 27 37 52 68 66 73 90 87 87 91 86 82
99 100 100 100 100 98 100 94 69 89 91 98 70 59 70 93 100 100 82 100 94 83 82 100 100 100 100 100 100 100 100 100 85 31 15 14 21 27 25 21 20 20 22 31 36 81 100 90 93 91 84 79 76 81
35 35 46 77 97 85 77 96 78 46 36 44 75 100 96 86 91 96 100 69 45 54 90 100 100 100 100 100 100 100 77 40 20 23 20 13 19 37 20 16 16 17 17 22 38 55 72 86 98 92 88 81 79 71
91 29 22 22 41 43 35 31 56 88 100 100 92 85 100 100 98 99 100 99 56 74 80 97 100 100 100 100 88 55 30 26 22 22 19 13 19 34 32 28 26 20 22 20 44 63 59 61 68 69 66 60 49 39
82 100 99 90 80 72 76 82 94 100 100 88 91 98 100 100 100 100 100 79 67 72 74 92 80 100 98 73 51 36 30 23 22 20 18 21 35 39 36 32 29 29 28 21 26 90 72 64 62 60 78 84 72 58
74 68 76 94 100 100 100 96 85 94 100 97 100 100 82 100 78 71 90 95 90 91 96 95 100 100 85 62 44 32 25 27 29 23 31 51 46 42 42 24 37 40 29 27 68 100 98 95 92 93 90 87 71 54
52 43 53 45 58 91 83 68 94 71 95 93 100 86 100 87 87 99 73 66 77 84 99 100 99 92 80 54 46 49 37 28 26 42 60 50 38 28 36 56 62 81 84 91 100 100 94 95 92 78 74 66 68 67
66 58 58 40 46 60 79 89 98 95 100 99 100 82 99 100 100 91 94 100 84 71 65 70 78 76 72 67 48 36 30 30 59 63 43 35 32 64 78 92 99 100 86 100 100 100 100 85 74 61 58 58 64 68
45 52 53 54 62 71 69 71 75 69 55 47 39 35 31 28 24 23 25 27 36 47 48 61 69 74 61 47 36 42 44 77 62 40 40 35 71 88 88 82 96 100 100 100 98 89 85 75 43 45 67 73 74 86
52 67 83 96 100 100 91 71 69 57 49 41 39 37 36 27 25 33 43 44 46 53 60 66 76 76 72 76 74 78 97 76 46 38 34 72 89 82 97 100 100 97 74 60 58 56 55 44 38 46 65 79 83 100
30 37 45 55 68 82 80 75 69 57 49 42 33 28 26 22 18 18 19 19 22 24 29 36 38 48 56 53 51 44 44 36 34 31 68 99 75 98 100 100 100 100 100 90 75 64 62 59 54 63 82 90 97 100
15 15 17 21 23 26 26 28 28 33 48 54 66 67 70 66 53 33 26 26 29 34 41 50 58 72 74 84 68 45 40 58 69 62 68 66 82 100 100 100 100 100 100 100 99 98 100 100 100 100 98 98 100 99
56 55 58 60 60 64 63 64 70 74 76 75 79 82 91 86 86 83 71 54 31 30 31 35 34 34 41 50 58 66 59 48 41 47 67 78 80 99 100 100 100 100 100 100 100 100 100 100 100 100 100 100 93 85
92 90 91 91 92 95 95 95 96 96 93 95 95 96 98 100 100 98 98 96 70 61 60 56 54 60 58 55 42 32 31 33 38 45 48 57 83 99 100 100 100 100 100 100 100 100 100 100 99 96 92 95 91 74
98 99 100 100 100 99 99 94 99 99 100 100 98 100 99 97 97 100 100 100 100 97 94 90 85 73 66 60 54 57 50 44 42 48 61 79 94 100 100 100 100 100 100 100 100 100 100 100 100 100 100 100 100 100
72 96 98 98 90 91 83 86 92 96 99 99 99 100 100 100 100 99 100 98 100 100 100 100 100 100 100 100 100 100 99 98 97 97 99 100 100 100 100 100 99 99 99 100 100 100 100 100 100 100 100 100 100 100
14 24 25 30 37 55 66 75 79 82 87 88 94 94 92 93 99 100 100 100 100 100 100 100 100 100 100 100 100 100 100 100 100 100 100 100 100 100 100 100 99 100 100 100 100 100 100 100 100 100 100 100 100 100
32 16 13 11 10 11 12 17 23 35 51 57 61 55 55 54 56 72 98 100 100 100 100 100 100 100 100 100 100 100 100 100 100 100 100 100 100 100 100 100 100 100 100 100 100 100 100 100 100 100 100 100 100 100
96 90 78 63 47 19 10 8 8 9 12 16 22 24 22 20 23 36 49 69 94 100 100 100 100 100 100 100 100 100 100 100 100 100 100 100 100 100 100 100 100 100 100 100 100 100 100 100 100 100 100 100 100 100
100 100 100 100 100 100 99 86 28 10 8 9 9 9 10 12 14 15 18 30 56 87 95 92 94 100 100 100 100 100 100 100 100 100 100 100 100 100 100 100 100 100 100 100 100 100 100 100 100 100 100 100 100 100
76 63 72 82 94 98 99 100 100 100 78 38 15 11 10 10 9 9 10 11 12 28 56 71 80 87 96 99 99 99 100 100 100 100 100 100 100 100 100 100 100 100 100 100 100 100 99 95 88 74 60 49 39 35
70 67 65 54 44 48 50 54 80 99 100 100 93 58 25 14 12 10 9 9 9 10 11 19 45 62 63 61 60 60 62 63 62 65 68 73 71 70 73 73 70 62 49 37 32 30 31 33 35 37 38 39 41 43
99 94 94 100 97 70 48 36 21 46 96 100 100 100 98 57 42 26 14 10 10 9 9 9 10 11 20 35 49 56 60 58 56 52 47 40 33 29 26 25 27 30 31 30 29 30 32 35 38 40 44 48 51 57
100 100 100 100 100 80 41 15 13 28 71 100 98 100 100 100 99 82 40 19 13 11 10 9 9 9 10 12 14 15 17 20 24 27 27 27 28 29 29 26 25 25 26 27 30 34 36 36 36 37 38 51 68 85
100 100 99 97 94 96 62 18 13 31 64 100 100 98 95 100 100 99 84 63 40 20 13 12 11 10 11 12 14 17 20 22 24 26 28 28 27 26 26 28 30 33 36 38 41 48 53 58 57 51 51 77 100 100
Wind_Speed
39 37 42 41 37 36 39 33 42 50 50 47 46 46 42 41 42 44 43 44 46 44 44 43 46 45 46 40 41 32 29 24 20 30 24 24 28 28 32 33 35 36 36 37 33 36 36 31 26 28 27 27 30 31
43 38 35 43 42 39 39 36 32 42 48 44 42 44 45 43 45 48 47 47 47 48 44 42 42 45 51 45 31 39 36 30 24 25 26 19 16 23 26 26 25 29 33 34 27 27 36 33 31 31 29 29 29 31
42 40 36 48 38 37 37 35 32 31 41 44 42 42 43 35 33 32 32 35 42 53 47 44 40 40 44 44 40 35 28 22 23 32 27 29 24 21 22 27 26 25 29 29 31 30 33 28 30 33 30 28 26 28
39 34 35 42 34 35 33 33 29 29 30 32 33 32 32 32 33 33 32 36 40 42 51 45 44 40 41 49 43 34 31 32 29 27 21 27 26 25 25 26 23 24 26 28 31 32 31 26 26 28 28 31 33 33
27 28 35 31 32 31 30 30 29 28 28 26 25 28 31 32 33 32 33 35 37 41 47 49 41 39 39 47 45 37 32 32 34 24 26 27 30 28 26 26 27 26 31 29 26 27 27 30 32 33 36 38 35 33
14 21 26 27 28 27 29 25 25 25 24 24 25 28 29 30 28 29 29 28 27 32 36 46 34 35 37 39 43 38 33 30 33 29 27 26 21 18 15 14 19 24 25 28 30 30 32 30 30 33 31 31 29 24
15 17 19 23 27 27 24 24 24 26 28 28 26 28 28 24 24 25 24 23 25 29 32 36 28 32 40 41 38 33 32 28 31 27 22 19 20 20 16 16 19 22 26 29 31 34 34 35 37 35 34 35 35 36
7 10 14 17 20 20 21 22 23 28 27 26 25 23 20 22 25 24 22 20 23 29 32 28 18 18 25 31 28 22 34 36 28 30 27 22 23 20 15 17 23 28 31 32 35 35 35 35 34 33 32 32 31 32
2 3 10 14 18 20 19 18 21 26 26 24 22 22 22 22 20 20 23 23 22 27 30 26 17 13 22 24 28 26 32 35 34 29 26 23 17 18 19 22 25 30 33 34 35 36 37 35 33 32 30 30 32 30
18 10 8 18 20 18 18 17 16 19 22 22 23 20 20 19 18 20 23 26 32 32 33 24 13 6 22 18 26 21 32 25 20 21 18 13 15 16 17 20 25 27 24 25 29 32 36 35 33 34 33 30 30 29
40 34 19 15 21 21 14 15 11 19 17 15 17 16 21 27 26 26 20 25 29 34 20 15 16 17 19 17 21 21 17 19 21 18 16 11 13 18 16 17 23 24 27 26 24 26 32 35 35 35 34 34 33 32
43 49 53 50 37 30 33 40 44 45 39 33 31 37 31 26 25 12 9 12 28 32 17 15 9 13 17 22 22 20 21 21 20 17 17 14 16 20 22 27 26 30 33 28 23 22 25 30 34 33 33 33 32 32
41 37 42 46 51 54 50 47 44 41 38 37 32 24 24 10 5 3 12 14 19 15 14 12 12 18 20 22 22 22 22 21 18 19 20 21 22 27 32 37 36 36 37 30 24 19 18 24 27 26 23 21 22 24
37 41 41 41 38 38 37 38 38 34 28 29 21 20 16 5 7 7 11 13 13 16 15 13 15 21 19 16 17 21 22 22 23 24 24 25 32 31 43 47 44 40 36 27 21 18 16 16 19 19 19 19 19 22
27 30 31 33 34 33 28 31 28 29 22 18 8 10 4 6 1 1 10 13 13 14 13 16 19 19 20 24 24 24 23 25 25 25 27 32 34 42 43 37 26 21 22 22 19 18 19 18 18 21 21 22 24 24
19 23 22 22 23 25 24 21 10 14 5 8 3 8 4 10 7 2 10 15 14 13 17 20 22 25 28 30 28 30 30 27 21 24 28 35 36 31 26 19 19 19 20 20 20 20 19 18 20 21 23 24 23 22
13 15 14 14 15 15 14 12 10 8 5 3 1 2 5 6 8 8 9 11 15 18 21 25 29 34 35 36 34 32 27 24 24 27 36 32 25 26 24 21 21 18 17 19 21 23 23 23 24 25 23 21 23 24
6 5 5 4 3 1 1 1 4 6 9 10 12 14 14 15 18 18 19 22 24 26 29 32 34 37 39 40 35 30 31 31 33 34 28 24 21 17 16 14 14 15 18 20 22 24 25 27 27 23 23 22 23 24
11 10 9 8 8 10 11 12 14 15 18 20 21 22 23 23 23 25 26 25 24 22 13 16 26 26 38 46 42 39 38 35 32 23 18 19 18 19 18 15 14 14 15 16 17 19 21 21 21 23 24 22 23 23
9 5 1 3 5 8 7 4 1 1 3 2 1 2 3 5 7 8 11 12 11 10 7 5 5 4 4 10 18 28 33 28 20 18 18 21 19 16 16 14 15 15 16 18 20 21 21 22 24 23 21 22 22 19
9 9 8 7 6 5 4 4 3 2 1 1 2 5 6 7 6 4 3 5 10 16 15 15 14 11 8 7 9 11 14 17 17 18 21 20 20 17 17 18 17 17 17 17 16 16 17 18 19 21 22 20 19 20
8 7 6 6 6 7 8 8 9 10 11 11 12 12 12 11 11 10 10 10 11 12 10 12 12 10 7 8 10 10 11 12 15 17 21 21 20 18 19 21 20 20 20 19 17 17 16 16 16 18 19 20 20 20
11 13 16 17 18 18 18 17 18 18 19 19 20 19 18 17 15 13 11 10 12 13 13 14 14 13 11 10 10 10 12 13 15 18 20 22 22 23 22 23 22 23 23 21 19 17 18 19 20 21 22 23 24 24
13 13 14 15 16 18 18 19 19 18 18 17 16 15 15 15 16 15 15 14 11 11 11 13 15 17 19 20 21 20 20 20 21 23 26 26 26 24 21 21 23 23 21 19 19 19 19 19 19 20 20 21 23 24
13 14 17 18 18 18 18 18 18 18 18 19 19 19 17 17 16 15 14 14 14 14 14 14 14 13 13 15 18 21 22 21 21 22 22 21 18 19 21 22 23 22 21 20 20 21 21 22 22 22 23 23 23 23
10 9 12 15 18 19 18 21 21 20 20 19 19 19 18 18 18 18 16 13 15 17 18 17 18 19 20 19 19 18 19 20 21 20 20 21 23 25 27 28 30 27 25 24 22 22 22 22 22 23 24 25 25 25
13 13 13 13 13 13 12 13 16 17 18 19 20 21 22 21 19 18 17 17 17 18 19 19 19 20 21 23 22 22 23 24 25 26 27 28 30 30 31 32 29 25 24 24 23 23 23 24 25 26 25 25 26 26
11 13 15 17 18 18 18 15 13 13 13 13 14 16 16 18 19 20 20 19 18 19 20 20 19 21 22 22 22 22 21 21 22 24 26 28 29 28 27 25 23 22 22 22 24 25 26 26 25 25 26 26 26 27
7 10 17 21 22 21 20 22 23 22 20 18 15 13 13 16 19 18 18 18 19 20 20 20 19 18 19 19 19 19 19 20 20 20 19 20 20 21 21 21 21 22 22 23 23 23 24 25 25 26 26 27 28 28
9 5 4 9 16 23 26 27 26 26 26 24 20 16 17 19 19 19 16 14 14 16 18 19 21 21 19 19 18 18 17 17 17 18 18 19 20 21 22 23 23 23 23 23 22 21 21 21 21 22 23 24 25 26
14 10 9 13 15 19 22 30 35 29 26 27 25 20 17 18 26 20 17 16 13 13 15 17 18 19 21 22 22 23 22 22 22 22 22 21 22 23 22 21 19 17 18 20 21 22 23 24 24 25 27 28 29 29
34 30 25 23 24 28 32 36 36 38 29 25 26 24 23 20 20 19 18 17 16 15 15 16 16 16 17 18 19 19 20 20 20 20 19 18 17 16 15 15 15 16 17 18 19 21 22 24 25 27 28 29 29 29
41 42 42 42 41 44 45 47 41 35 31 26 26 25 24 23 21 19 18 16 16 16 16 16 16 16 17 17 17 18 18 18 17 15 13 14 15 15 15 16 17 19 21 24 25 26 28 29 29 30 31 30 28 27
Wind_Direction
251 251 249 251 246 247 238 238 236 233 232 234 241 245 246 245 244 245 245 245 246 244 238 233 227 223 213 223 227 224 231 226 239 248 253 259 256 256 259 258 261 256 253 252 251 254 260 247 249 264 261 258 258 269
251 247 240 249 247 240 240 233 231 233 235 239 243 245 249 249 253 249 245 245 245 244 238 234 227 224 219 223 219 226 226 231 243 251 245 246 290 275 262 260 263 266 256 249 255 259 245 256 259 261 257 252 266 276
250 247 241 229 236 232 237 229 231 234 228 232 240 244 252 239 240 247 247 245 245 240 237 232 227 227 225 220 215 214 206 210 249 244 249 262 275 278 276 259 274 267 261 253 260 260 256 254 252 254 258 259 270 279
243 245 223 221 233 227 225 221 223 222 219 224 229 230 234 238 243 247 249 247 246 244 235 225 226 224 223 216 215 210 218 221 231 238 261 266 274 278 269 268 267 262 259 254 249 247 256 258 258 254 263 267 268 267
241 222 205 207 208 215 215 210 216 218 218 220 227 232 236 241 246 244 247 245 243 241 231 221 223 222 222 218 213 221 228 224 228 228 243 262 280 273 262 260 260 268 273 267 258 257 258 261 260 267 267 264 262 260
184 168 171 188 199 204 203 213 218 219 225 233 233 234 241 244 241 240 234 230 236 226 223 214 212 218 216 220 219 217 223 229 222 228 249 254 261 264 264 259 264 265 271 272 271 266 264 259 258 261 261 261 249 247
147 170 182 189 196 203 210 216 224 229 223 225 230 243 241 233 223 220 220 225 225 217 210 201 196 209 215 219 210 225 217 209 223 226 234 242 255 262 273 281 286 272 269 270 268 263 257 257 261 263 266 264 262 260
166 186 198 204 209 215 225 225 224 220 220 230 222 224 212 208 213 208 204 216 216 213 193 184 165 193 221 209 187 198 209 206 215 231 240 255 260 263 278 274 277 283 281 272 266 262 260 260 263 265 264 260 261 260
74 193 205 202 206 207 199 201 212 211 206 205 209 198 195 191 198 192 203 210 189 181 188 162 147 167 205 206 170 191 204 213 219 230 238 243 258 275 289 288 288 282 279 280 278 263 260 260 258 262 264 264 262 261
41 36 216 202 193 191 190 177 175 188 194 190 192 186 173 174 183 196 183 170 169 179 180 158 155 165 205 211 211 223 210 217 213 224 228 258 264 279 291 293 289 293 299 283 276 273 267 262 263 264 265 264 266 270
43 43 60 154 172 171 174 174 171 167 164 142 126 141 154 152 144 138 144 170 179 173 151 156 181 183 188 207 217 207 199 206 214 225 243 268 265 264 279 304 304 307 312 301 279 277 275 269 268 269 270 272 275 279
64 76 82 92 105 112 114 113 110 109 104 100 127 141 140 140 126 123 145 184 190 181 162 168 163 165 183 189 197 194 205 215 225 233 241 277 253 263 278 290 292 296 311 301 292 270 269 267 265 266 270 274 276 275
70 76 78 86 100 107 107 106 106 105 111 116 119 130 140 127 84 116 142 184 199 189 182 187 185 200 199 197 198 210 220 227 241 251 272 262 266 278 287 292 293 291 291 279 281 271 265 263 261 258 260 268 273 273
73 74 72 76 80 88 93 97 96 92 94 106 111 142 131 160 148 142 163 171 185 198 211 218 226 214 205 210 224 231 237 251 262 278 271 278 293 294 293 297 287 278 272 259 262 261 258 261 259 257 262 269 273 271
80 79 82 80 76 75 76 80 87 100 112 106 110 162 181 187 7 176 197 187 181 192 218 222 220 221 220 228 235 245 257 265 277 276 278 289 297 301 298 294 282 265 252 246 252 256 251 256 257 267 270 266 266 266
87 83 80 75 79 84 82 87 94 115 87 159 133 183 233 228 238 244 213 206 218 225 235 237 246 247 244 245 250 253 263 275 269 280 287 298 296 294 291 271 270 267 246 241 242 246 250 252 257 258 262 264 262 262
102 104 101 101 105 110 114 125 131 136 124 108 142 197 219 230 237 252 247 241 242 243 247 250 254 252 247 249 256 261 266 265 281 286 295 291 289 296 288 272 271 265 254 251 250 253 255 261 272 257 260 266 266 273
130 129 130 134 131 156 180 225 243 249 262 273 287 291 285 291 294 288 285 283 281 279 275 267 263 255 253 254 256 258 255 265 276 279 275 274 277 280 282 283 282 272 263 257 257 258 261 265 270 252 263 269 269 276
234 239 230 226 230 237 248 258 265 271 274 274 276 278 275 272 267 263 260 259 263 263 269 266 268 274 267 259 252 250 252 256 255 259 253 258 267 283 291 298 300 294 286 273 265 263 264 265 260 263 269 267 273 271
79 79 117 252 266 271 272 268 219 182 90 107 85 307 302 306 305 277 251 238 203 189 209 243 267 296 230 216 233 237 232 228 235 237 242 247 276 285 296 300 300 298 290 280 271 269 269 266 262 264 265 269 271 263
60 66 71 74 79 80 75 75 80 74 88 261 264 308 315 320 330 331 304 258 220 221 235 248 251 245 229 214 211 216 228 229 233 235 234 255 273 283 296 296 295 304 310 297 283 282 280 274 268 265 265 262 264 265
334 334 329 319 312 307 307 307 313 313 313 311 312 307 302 294 294 298 294 283 274 281 299 300 306 321 348 322 289 278 268 261 252 253 250 261 272 287 293 287 287 293 300 299 291 280 277 276 269 260 258 260 263 264
306 309 308 307 306 305 303 305 304 302 300 300 302 302 301 300 296 290 279 271 267 269 273 279 283 283 281 275 276 273 262 256 254 255 259 264 275 287 289 288 288 291 295 294 285 283 278 272 270 268 267 268 269 269
302 296 293 291 296 298 302 304 307 307 307 304 304 306 304 300 295 291 285 279 273 268 267 270 271 271 272 273 272 270 269 267 265 266 269 275 280 282 281 286 291 293 289 284 283 281 282 283 284 284 283 282 282 282
305 294 293 295 297 295 296 297 301 301 300 300 303 305 308 306 302 298 289 279 276 274 274 276 277 278 281 283 278 271 269 272 272 274 275 274 269 274 280 288 297 297 290 285 283 282 281 281 281 282 282 281 281 280
326 322 307 313 313 308 305 296 294 293 293 295 298 299 299 301 303 305 304 290 273 271 269 268 267 271 277 280 282 282 271 264 267 270 270 268 274 277 280 286 296 295 286 282 280 279 280 282 285 286 285 282 280 279
330 331 331 333 332 338 333 322 311 301 294 292 294 295 300 302 299 293 292 290 288 286 285 280 276 275 274 274 274 271 269 270 271 272 273 275 277 280 283 288 289 286 281 278 277 275 278 283 284 281 279 277 277 276
333 336 337 339 338 332 330 331 322 314 313 314 309 302 301 293 291 288 287 286 285 280 278 279 280 280 281 283 283 282 279 277 275 273 273 274 277 279 282 284 283 282 282 281 279 280 283 283 281 279 278 277 276 275
294 325 332 335 334 334 333 333 324 317 312 310 313 314 309 298 295 298 293 286 281 280 278 279 280 279 281 282 282 283 284 286 286 287 288 288 288 287 287 286 285 283 282 281 282 282 283 284 284 283 281 280 279 278
268 265 310 333 332 326 330 331 324 318 313 308 305 308 303 297 294 299 310 310 299 289 280 274 272 272 273 276 279 280 282 283 285 286 288 291 291 291 290 290 290 289 288 288 287 287 287 287 287 288 287 287 286 286
249 249 277 301 313 316 312 316 324 313 304 302 301 299 290 284 291 303 301 302 301 290 282 279 276 273 273 273 274 276 278 280 281 283 285 287 287 287 288 288 288 289 290 292 294 294 294 293 293 292 291 289 286 285
267 272 282 293 298 304 313 310 307 311 294 291 291 288 284 284 284 287 291 292 294 296 290 282 279 277 278 276 275 276 277 279 281 283 285 283 281 281 283 286 289 294 298 300 301 302 304 301 299 301 300 293 288 285
268 270 277 285 290 298 303 303 300 299 294 278 275 275 278 282 287 287 283 283 285 286 286 286 283 278 273 273 274 275 276 278 278 277 275 278 277 276 281 285 289 293 296 300 302 304 304 306 306 305 304 297 289 285